Helicity
107 118 109 85 55 48 41 38 33 38 49 55 48 42 8 34 49 40 43 32 28 26 41 25 33 40 43 49 35 37 32 34 41 40 36 23 18 13 1 -5 -6 8 6
91 101 105 84 55 39 36 31 31 36 52 58 63 55 23 33 45 51 36 34 32 27 38 45 41 45 42 26 27 21 17 11 6 -10 4 2 5 9 16 19 16 4 15
84 93 79 86 64 46 37 35 31 27 30 50 56 49 31 43 51 49 30 33 35 33 48 42 44 30 22 12 11 8 3 -8 -22 -43 -34 -6 -5 -3 -1 9 14 15 11
163 118 74 85 74 55 42 38 37 27 15 21 20 24 39 63 60 38 40 38 37 45 46 50 36 20 15 6 1 0 -6 -21 -36 -11 -14 1 4 1 1 5 4 5 10
144 72 117 85 75 54 42 35 35 32 9 6 -18 7 36 62 57 43 42 29 46 50 41 35 14 9 6 6 -1 -2 -7 -26 -41 -2 7 5 5 10 12 12 12 13 14
89 87 124 84 62 58 40 38 33 34 32 -1 -13 17 56 80 54 53 49 50 49 34 33 15 6 4 10 7 5 6 -10 -26 -26 8 11 22 21 18 20 19 16 18 21
52 116 60 83 74 60 43 45 43 34 33 19 -3 32 53 70 63 65 58 67 60 50 28 21 18 15 8 11 16 9 -11 -17 0 7 17 24 20 20 21 20 19 23 30
102 94 50 75 60 54 46 50 53 44 36 41 9 29 67 75 63 72 67 57 55 37 33 32 18 12 8 12 17 10 -12 -33 7 14 21 25 16 19 23 24 24 24 29
292 149 89 59 65 65 48 57 61 48 47 51 51 46 97 89 63 46 49 43 37 32 31 21 14 8 8 13 14 10 -9 -26 -16 13 12 24 13 21 24 26 28 29 29
565 163 258 88 42 36 43 66 68 55 68 79 91 114 143 84 60 47 37 35 30 24 24 20 15 14 17 21 14 8 -3 -20 10 15 15 34 21 25 27 29 29 30 33
286 213 84 246 70 29 56 69 82 71 78 114 97 81 88 84 40 39 42 51 34 24 14 12 15 23 25 29 23 12 -5 -3 18 17 30 43 20 16 24 26 29 34 37
169 214 295 110 235 71 106 69 71 61 60 87 83 62 62 18 15 29 47 40 42 24 14 10 20 24 7 21 22 14 3 20 22 24 47 45 20 16 23 28 28 33 34
159 280 160 -1 109 73 132 111 93 79 82 91 84 59 70 52 61 50 33 35 21 6 6 17 23 15 13 20 29 15 19 23 20 28 60 41 22 13 16 25 27 31 33
74 131 124 -31 73 96 192 117 97 75 81 95 98 48 45 76 58 40 31 17 2 11 1 10 22 15 26 22 19 16 25 23 22 30 60 44 25 14 10 12 21 27 38
29 -2 105 94 142 40 137 92 83 80 76 77 96 96 77 68 65 53 30 16 20 23 29 31 34 37 27 22 24 21 22 21 18 36 39 46 33 21 17 10 9 15 20
43 -13 64 95 205 267 151 129 77 78 72 59 75 81 62 70 69 60 45 39 44 51 51 44 35 38 40 36 28 22 23 28 24 28 27 50 43 33 21 16 15 18 16
42 19 43 69 205 314 134 177 112 71 74 95 61 55 57 54 50 53 59 62 56 53 49 56 57 59 50 45 40 36 32 24 30 23 30 33 51 35 31 20 16 20 20
0 0 11 70 98 181 282 130 68 88 88 82 87 77 58 56 55 61 65 62 63 63 67 66 64 67 64 59 48 47 52 43 33 29 40 34 35 32 41 39 29 25 18
72 36 61 102 95 129 122 100 50 57 90 99 79 81 74 71 71 82 82 75 55 74 57 65 71 68 72 79 74 75 72 52 48 37 38 30 33 40 32 34 31 33 36
59 13 12 48 112 114 95 91 66 82 75 94 127 107 62 85 83 81 84 78 62 73 60 67 63 76 83 83 84 95 97 75 56 61 47 55 50 48 40 46 37 33 47
68 74 22 72 175 264 151 151 99 103 110 105 109 102 107 95 78 75 81 67 71 80 53 55 68 83 101 118 126 109 138 79 74 70 69 65 62 50 56 59 60 62 78
211 225 84 71 167 263 188 110 75 95 129 116 113 93 87 105 98 112 97 90 94 78 102 81 86 110 120 119 168 143 123 104 127 105 93 85 76 64 39 54 69 81 85
270 241 102 90 103 102 97 122 113 148 122 171 143 132 88 81 76 74 72 80 103 164 165 123 106 107 142 148 141 175 178 178 178 115 133 113 76 51 46 75 77 93 107
49 214 92 124 114 83 82 160 97 171 154 121 103 180 97 51 40 58 78 61 70 85 75 92 111 111 141 154 179 134 191 223 246 176 131 84 51 29 35 62 68 99 103
54 187 216 113 65 65 57 58 164 139 134 137 114 156 114 58 19 43 63 84 100 57 20 4 106 104 137 262 265 283 305 245 248 199 176 78 30 1 45 46 47 120 108
42 -39 124 42 129 40 64 19 84 160 84 58 70 140 110 60 32 -41 117 156 146 122 69 201 207 182 119 181 236 306 325 197 175 83 64 74 56 97 129 106 91 111 138
Wind_Speed
17 9 11 6 7 6 8 9 8 5 4 7 11 13 15 16 19 22 24 26 28 31 34 34 35 37 38 37 38 38 37 36 35 36 37 37 39 41 42 43 49 51 53
20 12 13 9 8 10 10 11 10 7 4 4 9 11 13 17 19 22 22 24 26 30 31 32 33 33 34 36 37 38 36 35 34 37 41 40 38 42 43 44 47 51 54
21 14 17 12 9 10 12 13 14 10 6 3 9 12 14 18 19 20 22 23 25 28 28 30 31 33 34 34 35 35 34 33 33 38 40 36 38 39 41 43 45 49 51
18 17 17 16 12 11 12 12 13 13 9 3 9 13 16 18 17 18 19 20 23 23 24 27 30 32 32 32 32 32 32 33 34 25 35 36 37 37 39 42 44 47 48
21 23 19 17 15 14 14 14 13 15 10 4 9 16 16 16 16 16 16 15 18 19 21 22 27 30 30 30 30 31 32 35 35 33 34 35 37 38 39 40 44 46 47
25 28 19 19 19 18 17 16 15 16 12 8 9 12 15 13 13 13 11 11 15 18 15 20 26 28 27 28 29 31 33 32 27 33 35 34 35 37 38 40 43 45 46
29 28 25 24 23 21 22 18 17 18 14 13 9 13 15 13 11 10 9 12 13 14 16 21 22 25 25 26 28 29 28 27 30 31 32 33 34 35 37 39 42 44 45
37 29 30 31 29 25 25 22 20 20 20 17 13 13 14 11 9 8 11 12 12 12 12 15 18 21 22 25 26 26 26 26 29 29 30 31 32 34 36 38 40 42 43
38 32 32 35 35 31 27 24 23 23 23 20 15 13 11 8 5 10 10 11 13 12 11 11 14 17 19 21 22 23 24 25 26 28 28 29 31 32 34 36 38 39 41
42 29 32 43 39 35 33 30 25 25 25 23 15 11 11 8 4 6 9 7 10 8 9 10 11 13 15 18 19 20 22 25 26 26 27 27 28 30 32 34 35 36 38
46 55 45 43 46 40 34 34 30 27 28 27 19 14 8 7 6 8 8 6 4 3 3 5 8 11 14 16 18 20 21 24 24 26 27 25 26 27 29 31 32 33 35
58 54 52 69 56 60 35 36 33 30 30 31 29 24 19 11 10 9 8 8 7 6 5 6 8 10 12 15 17 19 21 24 25 25 26 24 25 26 27 27 29 31 33
63 60 62 90 78 73 42 40 38 33 33 36 36 33 30 19 14 12 10 11 10 9 9 11 13 15 15 19 18 18 23 25 25 26 25 24 25 26 27 27 28 29 31
58 53 68 80 65 77 40 40 41 39 34 33 35 30 26 26 21 17 14 13 12 12 12 13 16 18 21 22 23 23 22 24 25 25 22 23 24 26 28 30 29 28 28
66 62 53 51 66 41 50 45 42 43 34 33 33 32 29 27 24 22 18 16 17 16 20 20 25 22 23 22 25 26 24 23 25 26 28 22 25 28 30 31 32 32 31
67 61 49 58 61 52 61 49 46 45 43 30 33 34 29 28 26 26 23 22 22 24 26 25 25 25 25 24 24 23 24 28 29 28 29 22 24 27 30 33 33 31 30
60 50 47 54 44 38 46 54 52 49 46 43 34 34 34 30 29 28 27 28 27 27 31 29 27 31 30 27 28 26 26 28 26 27 29 32 26 27 31 35 36 36 34
81 47 47 52 45 41 44 52 55 55 49 44 42 39 37 34 32 30 30 31 32 33 35 32 32 32 31 30 28 28 29 28 31 30 31 32 33 39 34 34 37 42 42
61 50 44 38 39 39 40 58 55 51 53 50 43 41 42 40 37 37 36 38 38 39 37 34 35 34 32 32 31 31 30 30 30 32 33 34 37 41 44 46 41 44 43
59 63 46 35 30 29 39 62 53 45 48 46 48 47 43 48 45 45 44 42 43 42 42 41 39 36 36 32 31 32 31 33 35 36 36 38 40 42 44 47 49 47 39
69 66 56 35 26 42 37 67 51 44 43 43 43 43 44 46 44 47 47 48 50 47 45 46 39 37 34 36 32 33 38 40 35 37 37 36 37 39 44 44 46 48 44
60 62 64 35 28 24 53 76 41 34 37 36 43 42 41 41 42 47 46 51 50 49 52 53 41 39 38 32 34 35 40 40 34 37 31 36 39 42 41 44 47 48 49
56 58 50 40 21 25 34 63 54 48 36 36 44 45 39 44 42 44 51 52 54 49 50 58 52 33 33 33 30 31 39 45 33 29 34 36 40 42 43 45 45 46 47
61 67 57 57 51 41 38 52 47 41 49 49 37 38 41 41 45 42 54 53 53 56 65 69 70 62 43 38 40 40 45 41 34 37 33 37 39 45 46 45 46 46 47
46 52 56 61 65 58 54 59 62 62 50 52 51 50 46 46 48 49 51 54 57 60 59 61 55 56 56 48 44 40 41 41 40 40 52 49 43 49 48 50 51 48 48
44 51 57 51 59 62 54 59 53 68 59 57 57 61 55 53 49 58 63 60 52 63 54 59 47 42 43 40 40 38 31 38 46 50 52 52 54 50 47 47 46 49 48
Wind_Direction
283 233 220 228 263 288 308 318 325 339 351 68 85 84 80 81 85 87 85 79 73 71 73 66 62 57 61 50 50 49 43 40 40 42 37 33 34 33 27 24 51 41 45
268 233 216 227 251 274 292 300 309 313 310 90 98 94 92 94 94 92 88 82 76 77 70 62 61 55 52 56 55 56 50 44 40 43 48 39 29 33 30 30 33 40 40
252 234 226 230 244 266 283 292 295 299 286 133 116 112 108 105 100 96 90 84 81 82 70 66 62 63 61 59 55 52 47 41 36 49 56 30 31 29 30 27 30 36 41
244 236 230 235 242 260 276 285 286 287 277 193 129 124 121 114 106 101 92 85 86 79 69 67 67 65 61 58 51 46 44 44 41 352 33 31 30 22 24 28 31 35 44
254 245 234 234 245 257 269 273 277 282 269 213 142 127 123 118 114 104 94 84 83 78 72 65 69 68 60 54 48 48 48 55 46 28 30 27 30 25 24 23 33 35 33
256 248 229 235 249 256 262 264 265 271 269 237 160 138 128 121 114 107 95 86 86 85 65 69 76 72 59 51 50 55 60 49 1 36 37 24 24 26 24 27 33 35 36
260 248 243 239 249 255 257 255 258 259 264 249 198 149 137 126 119 111 105 98 90 81 73 78 71 69 59 50 51 52 48 17 38 30 28 25 21 21 24 29 33 34 34
259 251 250 245 250 255 254 249 252 253 253 252 230 161 139 126 123 120 118 110 98 86 73 70 69 65 56 52 49 45 38 20 29 25 23 20 22 22 24 28 30 32 34
256 260 253 248 252 256 251 244 249 253 246 249 235 178 156 142 135 133 132 119 108 95 79 66 60 57 53 45 41 41 30 359 4 15 25 29 21 21 24 27 29 30 30
240 260 270 255 252 253 249 245 247 250 244 238 235 205 161 139 168 171 157 143 122 103 85 66 47 37 37 33 24 23 13 351 3 10 6 14 20 23 24 25 27 28 28
247 255 260 273 253 252 247 246 246 246 243 233 226 215 189 230 206 191 202 207 167 136 71 45 31 20 18 15 10 6 5 357 358 356 360 15 18 23 25 25 25 26 24
249 250 249 264 268 256 243 241 243 243 241 236 231 230 241 242 219 203 201 219 235 254 285 320 343 354 5 4 359 355 355 349 348 350 356 11 12 16 20 23 23 20 18
250 253 262 250 256 260 236 235 239 240 240 240 236 235 244 244 230 226 229 233 244 255 280 295 307 317 327 329 342 351 340 337 341 345 350 360 0 2 5 11 12 15 13
251 256 253 242 249 259 240 233 235 240 238 240 239 230 233 239 233 237 233 232 242 256 275 288 301 307 312 316 322 327 335 336 335 340 354 356 355 353 353 355 1 5 7
250 254 258 252 243 272 248 238 236 237 238 239 238 236 236 237 232 238 240 242 255 263 276 284 291 302 307 314 315 318 326 331 331 334 334 352 348 345 345 346 348 350 352
254 258 264 250 250 256 253 244 241 238 238 235 237 236 235 238 236 242 246 252 260 269 276 284 292 299 304 309 313 320 321 319 320 325 330 345 345 342 341 340 343 346 349
256 263 266 250 256 249 247 242 243 243 239 239 237 237 238 239 239 243 250 257 264 270 275 284 294 293 297 303 306 311 315 316 323 324 325 326 339 340 338 337 336 337 338
220 266 262 257 259 254 250 249 244 242 241 238 240 240 239 241 244 248 254 260 266 271 274 284 287 290 293 297 302 305 308 314 314 318 321 323 327 326 335 335 336 332 331
257 261 262 263 258 251 244 246 245 243 240 240 239 241 241 244 248 253 258 263 266 270 276 282 284 287 290 293 296 300 304 308 312 313 316 320 322 323 324 326 332 331 329
251 257 267 266 258 251 245 243 243 241 241 242 242 243 245 247 250 255 261 266 267 268 276 278 282 285 289 292 295 297 300 303 306 309 311 316 320 323 327 328 328 332 338
246 251 256 261 257 249 245 236 239 239 236 240 242 245 249 251 254 258 264 267 266 268 276 278 283 284 286 289 292 295 297 298 301 305 309 315 321 325 327 331 334 333 338
253 252 250 265 266 239 244 232 239 230 236 241 243 246 250 257 261 264 267 267 268 271 275 278 280 282 283 281 284 293 296 298 302 302 308 316 317 321 325 330 331 332 332
265 263 260 262 262 260 252 237 250 245 244 243 245 249 258 263 269 268 268 271 272 277 278 279 283 274 277 276 274 292 295 293 296 302 304 312 317 319 323 328 332 334 334
263 253 250 252 250 254 253 241 246 243 248 252 248 256 262 267 276 282 274 273 276 276 275 276 276 283 280 274 277 277 291 300 302 302 304 308 317 317 320 325 329 333 334
255 255 250 251 245 253 251 246 250 250 262 263 260 257 266 272 281 283 282 277 275 273 280 281 288 285 279 282 273 280 284 294 303 303 299 306 311 314 317 319 321 329 333
260 252 248 255 249 244 259 257 263 251 258 270 266 261 267 279 286 287 279 274 275 275 291 281 289 290 290 292 277 277 287 290 293 296 297 302 306 314 319 322 325 326 331